Keahole Point, HI

1:08 AM HST on December 12, 2017 (GMT -1000)
Kona International At Keahole

Weather History for PHKO - November, 2015

Change the Weather History Date:

Sunday, November 8, 2015

  Actual Average Record
Temperature  
Mean Temperature 80 °F -  
Max Temperature 86 °F 82 °F 90 °F (1982)
Min Temperature 75 °F 71 °F 69 °F (1983)
Cooling Degree Days 16    
Growing Degree Days 30 (Base 50)    
Moisture  
Dew Point 67 °F    
Average Humidity 66    
Maximum Humidity 79    
Minimum Humidity 51    
Precipitation  
Precipitation 0.00 in - - ()
Sea Level Pressure  
Sea Level Pressure 29.97 in    
Wind  
Wind Speed 6 mph (SE)    
Max Wind Speed 12 mph    
Max Gust Speed -    
Visibility 10 miles    
Events      
Averages and records for this station are not official NWS values.
T = Trace of Precipitation, MM = Missing Value Source: NWS Daily Summary

Daily Weather History Graph

Daily Weather History Graph

Search for Another Location

Airport or City:

Trip Planner

Search our weather history database for the weather conditions in past years. The results will help you decide how hot, cold, wet, or windy it might be!

Date:

Astronomy

Nov. 08, 2015 Rise Set
Actual Time 6:28 AM HST 5:46 PM HST
Civil Twilight 6:05 AM HST 6:09 PM HST
Nautical Twilight 5:39 AM HST 6:36 PM HST
Astronomical Twilight 5:13 AM HST 7:02 PM HST
Moon 4:02 AM HST (11/8) 4:10 PM HST (11/8)
Length of Visible Light 12h 03m
Length of Day
11h 18m
Waning Crescent, 7% of the Moon is Illuminated
Nov 8
Waning Crescent
Nov 11
New
Nov 18
First Quarter
Nov 25
Full
Dec 2
Last Quarter

Hourly Weather History & Observations

Time (HST) Temp. Heat Index Dew Point Humidity Pressure Visibility Wind Dir Wind Speed Gust Speed Precip Events Conditions
12:53 AM 78.1 °F - 66.0 °F 66% 30.00 in 10.0 mi East 4.6 mph - N/A   Mostly Cloudy
1:07 AM 78.8 °F - 66.2 °F 65% 29.99 in 10.0 mi East 4.6 mph - N/A   Scattered Clouds
1:53 AM 75.9 °F - 66.0 °F 71% 29.99 in 10.0 mi ENE 5.8 mph - N/A   Clear
2:38 AM 75.2 °F - 66.2 °F 73% 29.98 in 10.0 mi ENE 5.8 mph - N/A   Mostly Cloudy
2:53 AM 75.9 °F - 66.9 °F 74% 29.98 in 10.0 mi ENE 4.6 mph - N/A   Overcast
3:07 AM 75.2 °F - 66.2 °F 73% 29.97 in 10.0 mi NE 4.6 mph - N/A   Mostly Cloudy
3:53 AM 75.0 °F - 66.0 °F 73% 29.97 in 10.0 mi ENE 5.8 mph - N/A   Clear
4:24 AM 75.2 °F - 66.2 °F 73% 29.97 in 10.0 mi East 4.6 mph - N/A   Mostly Cloudy
4:32 AM 75.2 °F - 66.2 °F 73% 29.97 in 10.0 mi East 4.6 mph - N/A   Mostly Cloudy
4:53 AM 75.9 °F - 66.0 °F 71% 29.97 in 10.0 mi East 5.8 mph - N/A   Partly Cloudy
5:53 AM 75.0 °F - 68.0 °F 79% 29.98 in 10.0 mi East 5.8 mph - N/A   Partly Cloudy
6:53 AM 75.0 °F - 66.9 °F 76% 29.99 in 10.0 mi East 4.6 mph - N/A   Clear
7:53 AM 80.1 °F 82.3 °F 66.9 °F 64% 30.01 in 10.0 mi NNW 3.5 mph - N/A   Clear
8:53 AM 82.0 °F 84.9 °F 68.0 °F 62% 30.02 in 10.0 mi Variable 3.5 mph - N/A   Scattered Clouds
9:53 AM 84.0 °F 85.4 °F 64.0 °F 51% 30.01 in 10.0 mi WNW 6.9 mph - N/A   Scattered Clouds
10:53 AM 84.0 °F 86.3 °F 66.0 °F 55% 29.99 in 10.0 mi West 6.9 mph - N/A   Scattered Clouds
11:53 AM 84.9 °F 88.2 °F 68.0 °F 57% 29.96 in 10.0 mi SW 8.1 mph - N/A   Scattered Clouds
12:53 PM 84.9 °F 88.2 °F 68.0 °F 57% 29.93 in 10.0 mi SW 9.2 mph - N/A   Scattered Clouds
1:53 PM 86.0 °F 90.1 °F 69.1 °F 57% 29.90 in 10.0 mi WSW 9.2 mph - N/A   Scattered Clouds
2:53 PM 84.0 °F 88.4 °F 70.0 °F 63% 29.89 in 10.0 mi SW 8.1 mph - N/A   Overcast
3:53 PM 84.0 °F 88.4 °F 70.0 °F 63% 29.90 in 10.0 mi South 8.1 mph - N/A   Overcast
4:53 PM 84.0 °F 88.4 °F 70.0 °F 63% 29.91 in 10.0 mi South 9.2 mph - N/A   Mostly Cloudy
5:53 PM 82.0 °F 85.9 °F 70.0 °F 67% 29.93 in 10.0 mi South 5.8 mph - N/A   Clear
6:53 PM 82.0 °F 85.9 °F 70.0 °F 67% 29.94 in 10.0 mi South 5.8 mph - N/A   Clear
7:53 PM 80.1 °F 83.2 °F 70.0 °F 71% 29.96 in 10.0 mi SE 9.2 mph - N/A   Clear
8:53 PM 80.1 °F 82.7 °F 68.0 °F 67% 29.97 in 10.0 mi ESE 9.2 mph - N/A   Clear
9:53 PM 79.0 °F - 64.9 °F 62% 29.98 in 10.0 mi SE 8.1 mph - N/A   Partly Cloudy
10:53 PM 80.1 °F 82.1 °F 66.0 °F 62% 29.98 in 10.0 mi SE 11.5 mph - N/A   Overcast
11:53 PM 79.0 °F - 64.9 °F 62% 29.97 in 10.0 mi SSE 11.5 mph - N/A   Mostly Cloudy